Miscellaneous Local Product
Issued by NWS North Platte, NE

Home | Current Version | Previous Version | Text Only | Print | Product List | Glossary On
Versions: 1 2 3 4 5 6 7 8 9 10 11 12 13 14 15 16 17 18 19 20 21 22 23 24 25 26 27 28 29 30 31 32 33 34 35 36 37 38 39 40 41 42 43 44 45 46 47 48 49 50
686
AXUS43 KLBF 170310
MISLBF


WESTERN AND NORTH CENTRAL NEBRASKA HOURLY WEATHER ROUNDUP
NATIONAL WEATHER SERVICE NORTH PLATTE NE
900 PM CST SAT DEC 16 2017

NOTE: "FAIR" INDICATES FEW OR NO CLOUDS BELOW 12,000 FEET WITH NO
SIGNIFICANT WEATHER AND/OR OBSTRUCTIONS TO VISIBILITY.

NOTE: STATIONS NOT REPORTING VARIABLES SUCH AS SKY/WEATHER OR
PRESSURE ARE PROVIDED BY RAWS AND APRS NETWORKS AND ARE NOT UNDER
NATIONAL WEATHER SERVICE QUALITY CONTROL.

...OBSERVATIONS IN AND NEAR THE EASTERN PANHANDLE OF NEBRASKA...

CITY           SKY/WX    TMP DP  RH WIND       PRES   REMARKS
PINE RIDGE     CLOUDY    32  26  78 N6        30.03R WCI  26
GORDON         CLOUDY    32  28  88 CALM      30.01S
CHADRON        CLOUDY    31  26  82 N6        30.04R WCI  25
ALLIANCE       CLOUDY    32  28  85 NE12      29.98R WCI  23
SIDNEY         CLOUDY    33  28  81 NE14      29.95S WCI  23
CRESCENT LAKE    N/A     50  28  43 NE9G16      N/A
$$

...OBSERVATIONS IN NORTHERN NEBRASKA AND FAR SOUTHERN SOUTH DAKOTA...

CITY           SKY/WX    TMP DP  RH WIND       PRES   REMARKS
WINNER         CLOUDY    38  32  79 N8        30.06R WCI  32
VALENTINE      CLOUDY    37  32  82 N8        30.03R WCI  31
THEDFORD       CLOUDY    37  32  84 N8        29.99S WCI  31
AINSWORTH      CLOUDY    37  34  90 N8        30.02R WCI  30
O`NEILL        PTCLDY    35  33  94 N8        30.01S WCI  28
ORD            CLOUDY    34  32  92 N8        29.98R WCI  27
BROKEN BOW     CLOUDY    39  33  79 NE15G21   29.97R WCI  31
VALENTINE NWR    N/A     35  31  87 N3          N/A
HALSEY           N/A     36  31  83 N6G13       N/A  WCI  31
BUTTE            N/A     37  33  86 NE7         N/A  WCI  31
EWING            N/A     34  30  86 NE3         N/A
$$

...OBSERVATIONS IN SOUTHWEST NEBRASKA AND FAR NORTHEAST COLORADO...

CITY           SKY/WX    TMP DP  RH WIND       PRES   REMARKS
WRAY           MOCLDY    32  30  93 N13       29.94R WCI  22
HOLYOKE        CLOUDY    37  32  81 NE14      29.95R WCI  29
IMPERIAL       CLOUDY    36  32  85 NE14      29.95R WCI  27
OGALLALA       CLOUDY    37  32  81 NE14      29.97R WCI  29
NORTH PLATTE   CLOUDY    38  33  82 NE16      29.96R WCI  29
MCCOOK         CLEAR     33  28  81 N16       29.91R WCI  23
LEXINGTON      CLEAR     35  30  82 NE13      29.95R WCI  26
STAPLETON        N/A     36  32  86 NE5G12      N/A  WCI  32
GOTHENBURG       N/A     36  30  79 N6          N/A  WCI  31
CALLAWAY         N/A     38  34  86 NE16        N/A  WCI  29
$$

...OBSERVATIONS IN CENTRAL LINCOLN COUNTY AREA...

CITY           SKY/WX    TMP DP  RH WIND       PRES   REMARKS
N.P. AIRPORT   CLOUDY    38  33  82 NE16      29.96R WCI  29
N.P. DOWNTOWN    N/A     37  33  84 NE10        N/A  WCI  30
N.P. SOUTHEAST   N/A     37  32  83 NE8G15      N/A  WCI  31
N.P. HILLCREST   N/A     37  33  86 NE18G26     N/A  WCI  27
$$

...SOME OBSERVATIONS FROM AROUND THE REGION...

CITY           SKY/WX    TMP DP  RH WIND       PRES   REMARKS
DENVER         CLOUDY    30  21  69 E12       29.88R WCI  20
GRAND JUNCTION CLOUDY    26   6  42 CALM      29.83R
LARAMIE        CLOUDY    23  19  85 E9        29.84R WCI  13
CHEYENNE       CLOUDY    28  26  92 E13       29.89S WCI  17
CASPER         LGT SNOW  25  22  88 NE13      29.94R FOG     WCI  14
BISMARCK       CLOUDY    32  28  85 SW3       30.06R
RAPID CITY     CLOUDY    32  23  69 N6        30.05R WCI  26
PIERRE         CLOUDY    34  31  88 CALM      30.06R
SIOUX FALLS    MOCLDY    29  27  92 N6        30.05R WCI  23
OMAHA          CLOUDY    34  24  67 N9        29.95S WCI  27
GRAND ISLAND   CLOUDY    31  30  96 N10       29.96R WCI  22
SCOTTSBLUFF    CLOUDY    34  28  79 E13       29.98S WCI  25
KANSAS CITY    CLOUDY    43  27  53 S10       29.95R
HILL CITY      CLOUDY    38  21  50 NE8       29.86R WCI  32
WICHITA        MOCLDY    52  28  39 S10       29.89S
DODGE CITY     CLOUDY    49  26  41 S13       29.82R
OKLAHOMA CITY  CLOUDY    46  36  68 S22G31    29.95R
DALLAS         RAIN      45  44  97 SE9       30.02S FOG
AMARILLO       PTCLDY    44  30  57 S17G24    29.80R
$$




USA.gov is the U.S. government's official web portal to all federal, state and local government web resources and services.